Voltar ao catálogo

STARLINK-36060

AtivoComunicaçõesVLEO
NORAD 67090·PAYLOAD·🇺🇸 United States

Lançado Dec 14, 2025 de Vandenberg Space Force Base

Loading…

Próximas Passagens (próximas 24 horas)

TLE

AtualizadoSource: CelesTrak SupGP

Época: Sep 14, 2026, 21:21 UTC

1 67090C 25298R   26257.89006944  .00061181  00000+0  51262-2 0  2571
2 67090  69.9998 257.4126 0003633 267.6870 239.6885 14.98306045    14

Acompanhe STARLINK-36060 em tempo real com AllMySat

Download on the App Store